Year,Month,Day,Hour,Minute,Value (Times are PST for temperature in C)
2017,09,27,00,00,11.60
2017,09,27,00,01,11.60
2017,09,27,00,02,11.60
2017,09,27,00,03,11.60
2017,09,27,00,04,11.70
2017,09,27,00,05,11.70
2017,09,27,00,06,11.70
2017,09,27,00,07,11.70
2017,09,27,00,08,11.70
2017,09,27,00,09,11.70
2017,09,27,00,10,11.70
2017,09,27,00,11,11.70
2017,09,27,00,12,11.70
2017,09,27,00,13,11.70
2017,09,27,00,14,11.70
2017,09,27,00,15,11.70
2017,09,27,00,16,11.70
2017,09,27,00,17,11.70
2017,09,27,00,18,11.70
2017,09,27,00,19,11.60
2017,09,27,00,20,11.60
2017,09,27,00,21,11.60
2017,09,27,00,22,11.60
2017,09,27,00,23,11.60
2017,09,27,00,24,11.60
2017,09,27,00,25,11.60
2017,09,27,00,26,11.60
2017,09,27,00,27,11.50
2017,09,27,00,28,11.50
2017,09,27,00,29,11.50
2017,09,27,00,30,11.50
2017,09,27,00,31,11.40
2017,09,27,00,32,11.40
2017,09,27,00,33,11.40
2017,09,27,00,34,11.40
2017,09,27,00,35,11.40
2017,09,27,00,36,11.50
2017,09,27,00,37,11.50
2017,09,27,00,38,11.50
2017,09,27,00,39,11.60
2017,09,27,00,40,11.60
2017,09,27,00,41,11.70
2017,09,27,00,42,11.70
2017,09,27,00,43,11.70
2017,09,27,00,44,11.70
2017,09,27,00,45,11.70
2017,09,27,00,46,11.70
2017,09,27,00,47,11.70
2017,09,27,00,48,11.70
2017,09,27,00,49,11.70
2017,09,27,00,50,11.60
2017,09,27,00,51,11.60
2017,09,27,00,52,11.60
2017,09,27,00,53,11.60
2017,09,27,00,54,11.50
2017,09,27,00,55,11.50
2017,09,27,00,56,11.50
2017,09,27,00,57,11.40
2017,09,27,00,58,11.40
2017,09,27,00,59,11.40
2017,09,27,01,00,11.40
2017,09,27,01,01,11.40
2017,09,27,01,02,11.40
2017,09,27,01,03,11.40
2017,09,27,01,04,11.40
2017,09,27,01,05,11.40
2017,09,27,01,06,11.30
2017,09,27,01,07,11.30
2017,09,27,01,08,11.30
2017,09,27,01,09,11.30
2017,09,27,01,10,11.30
2017,09,27,01,11,11.30
2017,09,27,01,12,11.30
2017,09,27,01,13,11.30
2017,09,27,01,14,11.30
2017,09,27,01,15,11.20
2017,09,27,01,16,11.20
2017,09,27,01,17,11.20
2017,09,27,01,18,11.20
2017,09,27,01,19,11.20
2017,09,27,01,20,11.20
2017,09,27,01,21,11.20
2017,09,27,01,22,11.20
2017,09,27,01,23,11.20
2017,09,27,01,24,11.30
2017,09,27,01,25,11.30
2017,09,27,01,26,11.30
2017,09,27,01,27,11.30
2017,09,27,01,28,11.30
2017,09,27,01,29,11.30
2017,09,27,01,30,11.30
2017,09,27,01,31,11.30
2017,09,27,01,32,11.30
2017,09,27,01,33,11.30
2017,09,27,01,34,11.30
2017,09,27,01,35,11.30
2017,09,27,01,36,11.30
2017,09,27,01,37,11.40
2017,09,27,01,38,11.40
2017,09,27,01,39,11.40
2017,09,27,01,40,11.40
2017,09,27,01,41,11.40
2017,09,27,01,42,11.40
2017,09,27,01,43,11.40
2017,09,27,01,44,11.30
2017,09,27,01,45,11.30
2017,09,27,01,46,11.30
2017,09,27,01,47,11.30
2017,09,27,01,48,11.20
2017,09,27,01,49,11.20
2017,09,27,01,50,11.20
2017,09,27,01,51,11.20
2017,09,27,01,52,11.10
2017,09,27,01,53,11.10
2017,09,27,01,54,11.20
2017,09,27,01,55,11.20
2017,09,27,01,56,11.20
2017,09,27,01,57,11.20
2017,09,27,01,58,11.20
2017,09,27,01,59,11.20
2017,09,27,02,00,11.20
2017,09,27,02,01,11.20
2017,09,27,02,02,11.30
2017,09,27,02,03,11.30
2017,09,27,02,04,11.30
2017,09,27,02,05,11.30
2017,09,27,02,06,11.40
2017,09,27,02,07,11.40
2017,09,27,02,08,11.50
2017,09,27,02,09,11.50
2017,09,27,02,10,11.60
2017,09,27,02,11,11.60
2017,09,27,02,12,11.60
2017,09,27,02,13,11.60
2017,09,27,02,14,11.60
2017,09,27,02,15,11.60
2017,09,27,02,16,11.50
2017,09,27,02,17,11.40
2017,09,27,02,18,11.40
2017,09,27,02,19,11.40
2017,09,27,02,20,11.30
2017,09,27,02,21,11.30
2017,09,27,02,22,11.30
2017,09,27,02,23,11.30
2017,09,27,02,24,11.20
2017,09,27,02,25,11.20
2017,09,27,02,26,11.20
2017,09,27,02,27,11.20
2017,09,27,02,28,11.30
2017,09,27,02,29,11.30
2017,09,27,02,30,11.30
2017,09,27,02,31,11.30
2017,09,27,02,32,11.30
2017,09,27,02,33,11.30
2017,09,27,02,34,11.30
2017,09,27,02,35,11.30
2017,09,27,02,36,11.30
2017,09,27,02,37,11.30
2017,09,27,02,38,11.30
2017,09,27,02,39,11.30
2017,09,27,02,40,11.30
2017,09,27,02,41,11.20
2017,09,27,02,42,11.20
2017,09,27,02,43,11.20
2017,09,27,02,44,11.20
2017,09,27,02,45,11.20
2017,09,27,02,46,11.20
2017,09,27,02,47,11.20
2017,09,27,02,48,11.20
2017,09,27,02,49,11.20
2017,09,27,02,50,11.20
2017,09,27,02,51,11.10
2017,09,27,02,52,11.10
2017,09,27,02,53,11.10
2017,09,27,02,54,11.00
2017,09,27,02,55,11.00
2017,09,27,02,56,11.00
2017,09,27,02,57,11.00
2017,09,27,02,58,11.10
2017,09,27,02,59,11.10
2017,09,27,03,00,11.20
2017,09,27,03,01,11.20
2017,09,27,03,02,11.30
2017,09,27,03,03,11.30
2017,09,27,03,04,11.30
2017,09,27,03,05,11.40
2017,09,27,03,06,11.40
2017,09,27,03,07,11.40
2017,09,27,03,08,11.40
2017,09,27,03,09,11.40
2017,09,27,03,10,11.40
2017,09,27,03,11,11.30
2017,09,27,03,12,11.30
2017,09,27,03,13,11.30
2017,09,27,03,14,11.20
2017,09,27,03,15,11.20
2017,09,27,03,16,11.20
2017,09,27,03,17,11.20
2017,09,27,03,18,11.30
2017,09,27,03,19,11.30
2017,09,27,03,20,11.30
2017,09,27,03,21,11.30
2017,09,27,03,22,11.30
2017,09,27,03,23,11.30
2017,09,27,03,24,11.30
2017,09,27,03,25,11.20
2017,09,27,03,26,11.20
2017,09,27,03,27,11.10
2017,09,27,03,28,11.10
2017,09,27,03,29,11.10
2017,09,27,03,30,11.00
2017,09,27,03,31,11.00
2017,09,27,03,32,10.90
2017,09,27,03,33,10.90
2017,09,27,03,34,11.00
2017,09,27,03,35,11.00
2017,09,27,03,36,11.10
2017,09,27,03,37,11.10
2017,09,27,03,38,11.10
2017,09,27,03,39,11.20
2017,09,27,03,40,11.20
2017,09,27,03,41,11.20
2017,09,27,03,42,11.20
2017,09,27,03,43,11.20
2017,09,27,03,44,11.20
2017,09,27,03,45,11.20
2017,09,27,03,46,11.20
2017,09,27,03,47,11.20
2017,09,27,03,48,11.20
2017,09,27,03,49,11.20
2017,09,27,03,50,11.20
2017,09,27,03,51,11.20
2017,09,27,03,52,11.20
2017,09,27,03,53,11.20
2017,09,27,03,54,11.20
2017,09,27,03,55,11.30
2017,09,27,03,56,11.30
2017,09,27,03,57,11.30
2017,09,27,03,58,11.30
2017,09,27,03,59,11.30
2017,09,27,04,00,11.40
2017,09,27,04,01,11.30
2017,09,27,04,02,11.30
2017,09,27,04,03,11.30
2017,09,27,04,04,11.30
2017,09,27,04,05,11.30
2017,09,27,04,06,11.40
2017,09,27,04,07,11.40
2017,09,27,04,08,11.30
2017,09,27,04,09,11.30
2017,09,27,04,10,11.30
2017,09,27,04,11,11.30
2017,09,27,04,12,11.30
2017,09,27,04,13,11.30
2017,09,27,04,14,11.40
2017,09,27,04,15,11.40
2017,09,27,04,16,11.40
2017,09,27,04,17,11.40
2017,09,27,04,18,11.40
2017,09,27,04,19,11.30
2017,09,27,04,20,11.30
2017,09,27,04,21,11.20
2017,09,27,04,22,11.20
2017,09,27,04,23,11.10
2017,09,27,04,24,11.10
2017,09,27,04,25,11.10
2017,09,27,04,26,11.10
2017,09,27,04,27,11.10
2017,09,27,04,28,11.20
2017,09,27,04,29,11.20
2017,09,27,04,30,11.20
2017,09,27,04,31,11.10
2017,09,27,04,32,11.10
2017,09,27,04,33,11.00
2017,09,27,04,34,10.90
2017,09,27,04,35,10.90
2017,09,27,04,36,10.90
2017,09,27,04,37,11.00
2017,09,27,04,38,11.00
2017,09,27,04,39,11.10
2017,09,27,04,40,11.20
2017,09,27,04,41,11.20
2017,09,27,04,42,11.20
2017,09,27,04,43,11.20
2017,09,27,04,44,11.30
2017,09,27,04,45,11.30
2017,09,27,04,46,11.30
2017,09,27,04,47,11.30
2017,09,27,04,48,11.30
2017,09,27,04,49,11.20
2017,09,27,04,50,11.10
2017,09,27,04,51,11.00
2017,09,27,04,52,11.00
2017,09,27,04,53,10.90
2017,09,27,04,54,10.90
2017,09,27,04,55,10.90
2017,09,27,04,56,10.90
2017,09,27,04,57,10.80
2017,09,27,04,58,10.80
2017,09,27,04,59,10.80
2017,09,27,05,00,10.90
2017,09,27,05,01,10.90
2017,09,27,05,02,10.90
2017,09,27,05,03,10.90
2017,09,27,05,04,10.90
2017,09,27,05,05,10.90
2017,09,27,05,06,10.80
2017,09,27,05,07,10.80
2017,09,27,05,08,10.80
2017,09,27,05,09,10.80
2017,09,27,05,10,10.80
2017,09,27,05,11,10.80
2017,09,27,05,12,10.80
2017,09,27,05,13,10.80
2017,09,27,05,14,10.80
2017,09,27,05,15,10.80
2017,09,27,05,16,10.80
2017,09,27,05,17,10.80
2017,09,27,05,18,10.80
2017,09,27,05,19,10.80
2017,09,27,05,20,10.80
2017,09,27,05,21,10.80
2017,09,27,05,22,10.80
2017,09,27,05,23,10.80
2017,09,27,05,24,10.90
2017,09,27,05,25,10.90
2017,09,27,05,26,10.90
2017,09,27,05,27,10.90
2017,09,27,05,28,10.80
2017,09,27,05,29,10.80
2017,09,27,05,30,10.80
2017,09,27,05,31,10.80
2017,09,27,05,32,10.80
2017,09,27,05,33,10.80
2017,09,27,05,34,10.80
2017,09,27,05,35,10.80
2017,09,27,05,36,10.70
2017,09,27,05,37,10.70
2017,09,27,05,38,10.70
2017,09,27,05,39,10.70
2017,09,27,05,40,10.70
2017,09,27,05,41,10.70
2017,09,27,05,42,10.70
2017,09,27,05,43,10.70
2017,09,27,05,44,10.70
2017,09,27,05,45,10.70
2017,09,27,05,46,10.70
2017,09,27,05,47,10.70
2017,09,27,05,48,10.70
2017,09,27,05,49,10.70
2017,09,27,05,50,10.70
2017,09,27,05,51,10.70
2017,09,27,05,52,10.70
2017,09,27,05,53,10.70
2017,09,27,05,54,10.70
2017,09,27,05,55,10.80
2017,09,27,05,56,10.80
2017,09,27,05,57,10.80
2017,09,27,05,58,10.80
2017,09,27,05,59,10.80
2017,09,27,06,00,10.90
2017,09,27,06,01,10.90
2017,09,27,06,02,10.90
2017,09,27,06,03,10.90
2017,09,27,06,04,10.90
2017,09,27,06,05,11.00
2017,09,27,06,06,10.90
2017,09,27,06,07,10.90
2017,09,27,06,08,10.90
2017,09,27,06,09,10.90
2017,09,27,06,10,10.90
2017,09,27,06,11,10.90
2017,09,27,06,12,10.90
2017,09,27,06,13,10.90
2017,09,27,06,14,10.90
2017,09,27,06,15,10.90
2017,09,27,06,16,10.80
2017,09,27,06,17,10.80
2017,09,27,06,18,10.80
2017,09,27,06,19,10.70
2017,09,27,06,20,10.70
2017,09,27,06,21,10.70
2017,09,27,06,22,10.70
2017,09,27,06,23,10.70
2017,09,27,06,24,10.60
2017,09,27,06,25,10.60
2017,09,27,06,26,10.60
2017,09,27,06,27,10.70
2017,09,27,06,28,10.70
2017,09,27,06,29,10.80
2017,09,27,06,30,10.80
2017,09,27,06,31,10.80
2017,09,27,06,32,10.80
2017,09,27,06,33,10.80
2017,09,27,06,34,10.80
2017,09,27,06,35,10.80
2017,09,27,06,36,10.80
2017,09,27,06,37,10.80
2017,09,27,06,38,10.80
2017,09,27,06,39,10.80
2017,09,27,06,40,10.80
2017,09,27,06,41,10.90
2017,09,27,06,42,10.90
2017,09,27,06,43,10.90
2017,09,27,06,44,10.90
2017,09,27,06,45,10.90
2017,09,27,06,46,10.90
2017,09,27,06,47,10.90
2017,09,27,06,48,10.90
2017,09,27,06,49,10.90
2017,09,27,06,50,10.80
2017,09,27,06,51,10.80
2017,09,27,06,52,10.80
2017,09,27,06,53,10.80
2017,09,27,06,54,10.80
2017,09,27,06,55,10.90
2017,09,27,06,56,10.90
2017,09,27,06,57,10.90
2017,09,27,06,58,11.00
2017,09,27,06,59,11.00
2017,09,27,07,00,11.10
2017,09,27,07,01,11.10
2017,09,27,07,02,11.10
2017,09,27,07,03,11.10
2017,09,27,07,04,11.10
2017,09,27,07,05,11.10
2017,09,27,07,06,11.10
2017,09,27,07,07,11.10
2017,09,27,07,08,11.00
2017,09,27,07,09,10.90
2017,09,27,07,10,10.90
2017,09,27,07,11,10.90
2017,09,27,07,12,10.80
2017,09,27,07,13,10.80
2017,09,27,07,14,10.70
2017,09,27,07,15,10.70
2017,09,27,07,16,10.60
2017,09,27,07,17,10.60
2017,09,27,07,18,10.50
2017,09,27,07,19,10.50
2017,09,27,07,20,10.40
2017,09,27,07,21,10.40
2017,09,27,07,22,10.30
2017,09,27,07,23,10.30
2017,09,27,07,24,10.30
2017,09,27,07,25,10.40
2017,09,27,07,26,10.50
2017,09,27,07,27,10.60
2017,09,27,07,28,10.60
2017,09,27,07,29,10.70
2017,09,27,07,30,10.80
2017,09,27,07,31,10.80
2017,09,27,07,32,10.80
2017,09,27,07,33,10.80
2017,09,27,07,34,10.80
2017,09,27,07,35,10.80
2017,09,27,07,36,10.80
2017,09,27,07,37,10.70
2017,09,27,07,38,10.70
2017,09,27,07,39,10.70
2017,09,27,07,40,10.70
2017,09,27,07,41,10.70
2017,09,27,07,42,10.60
2017,09,27,07,43,10.60
2017,09,27,07,44,10.60
2017,09,27,07,45,10.60
2017,09,27,07,46,10.60
2017,09,27,07,47,10.60
2017,09,27,07,48,10.60
2017,09,27,07,49,10.60
2017,09,27,07,50,10.70
2017,09,27,07,51,10.80
2017,09,27,07,52,10.90
2017,09,27,07,53,10.90
2017,09,27,07,54,10.90
2017,09,27,07,55,10.90
2017,09,27,07,56,10.90
2017,09,27,07,57,10.90
2017,09,27,07,58,10.90
2017,09,27,07,59,10.90
2017,09,27,08,00,10.90
2017,09,27,08,01,10.90
2017,09,27,08,02,10.90
2017,09,27,08,03,11.00
2017,09,27,08,04,11.00
2017,09,27,08,05,11.10
2017,09,27,08,06,11.10
2017,09,27,08,07,11.20
2017,09,27,08,08,11.20
2017,09,27,08,09,11.20
2017,09,27,08,10,11.30
2017,09,27,08,11,11.20
2017,09,27,08,12,11.20
2017,09,27,08,13,11.20
2017,09,27,08,14,11.20
2017,09,27,08,15,11.20
2017,09,27,08,16,11.20
2017,09,27,08,17,11.30
2017,09,27,08,18,11.30
2017,09,27,08,19,11.30
2017,09,27,08,20,11.40
2017,09,27,08,21,11.40
2017,09,27,08,22,11.50
2017,09,27,08,23,11.60
2017,09,27,08,24,11.60
2017,09,27,08,25,11.70
2017,09,27,08,26,11.70
2017,09,27,08,27,11.80
2017,09,27,08,28,11.80
2017,09,27,08,29,11.80
2017,09,27,08,30,11.80
2017,09,27,08,31,11.90
2017,09,27,08,32,11.90
2017,09,27,08,33,12.00
2017,09,27,08,34,12.00
2017,09,27,08,35,12.10
2017,09,27,08,36,12.10
2017,09,27,08,37,12.20
2017,09,27,08,38,12.30
2017,09,27,08,39,12.30
2017,09,27,08,40,12.30
2017,09,27,08,41,12.30
2017,09,27,08,42,12.40
2017,09,27,08,43,12.50
2017,09,27,08,44,12.50
2017,09,27,08,45,12.60
2017,09,27,08,46,12.60
2017,09,27,08,47,12.60
2017,09,27,08,48,12.50
2017,09,27,08,49,12.50
2017,09,27,08,50,12.40
2017,09,27,08,51,12.40
2017,09,27,08,52,12.40
2017,09,27,08,53,12.40
2017,09,27,08,54,12.40
2017,09,27,08,55,12.50
2017,09,27,08,56,12.50
2017,09,27,08,57,12.50
2017,09,27,08,58,12.60
2017,09,27,08,59,12.60
2017,09,27,09,00,12.60
2017,09,27,09,01,12.70
2017,09,27,09,02,12.70
2017,09,27,09,03,12.80
2017,09,27,09,04,12.80
2017,09,27,09,05,12.90
2017,09,27,09,06,12.90
2017,09,27,09,07,13.00
2017,09,27,09,08,13.10
2017,09,27,09,09,13.10
2017,09,27,09,10,13.20
2017,09,27,09,11,13.30
2017,09,27,09,12,13.30
2017,09,27,09,13,13.40
2017,09,27,09,14,13.50
2017,09,27,09,15,13.60
2017,09,27,09,16,13.70
2017,09,27,09,17,13.70
2017,09,27,09,18,13.80
2017,09,27,09,19,13.80
2017,09,27,09,20,13.80
2017,09,27,09,21,13.90
2017,09,27,09,22,13.90
2017,09,27,09,23,13.90
2017,09,27,09,24,13.90
2017,09,27,09,25,13.90
2017,09,27,09,26,13.90
2017,09,27,09,27,13.90
2017,09,27,09,28,13.90
2017,09,27,09,29,14.00
2017,09,27,09,30,14.00
2017,09,27,09,31,14.00
2017,09,27,09,32,14.10
2017,09,27,09,33,14.10
2017,09,27,09,34,14.10
2017,09,27,09,35,14.20
2017,09,27,09,36,14.20
2017,09,27,09,37,14.20
2017,09,27,09,38,14.20
2017,09,27,09,39,14.20
2017,09,27,09,40,14.30
2017,09,27,09,41,14.30
2017,09,27,09,42,14.30
2017,09,27,09,43,14.30
2017,09,27,09,44,14.40
2017,09,27,09,45,14.40
2017,09,27,09,46,14.50
2017,09,27,09,47,14.50
2017,09,27,09,48,14.50
2017,09,27,09,49,14.60
2017,09,27,09,50,14.60
2017,09,27,09,51,14.60
2017,09,27,09,52,14.60
2017,09,27,09,53,14.60
2017,09,27,09,54,14.60
2017,09,27,09,55,14.70
2017,09,27,09,56,14.70
2017,09,27,09,57,14.70
2017,09,27,09,58,14.80
2017,09,27,09,59,14.80
2017,09,27,10,00,14.80
2017,09,27,10,01,14.90
2017,09,27,10,02,14.90
2017,09,27,10,03,14.90
2017,09,27,10,04,14.90
2017,09,27,10,05,14.90
2017,09,27,10,06,15.00
2017,09,27,10,07,15.00
2017,09,27,10,08,15.00
2017,09,27,10,09,15.00
2017,09,27,10,10,15.10
2017,09,27,10,11,15.10
2017,09,27,10,12,15.10
2017,09,27,10,13,15.20
2017,09,27,10,14,15.20
2017,09,27,10,15,15.20
2017,09,27,10,16,15.30
2017,09,27,10,17,15.30
2017,09,27,10,18,15.40
2017,09,27,10,19,15.50
2017,09,27,10,20,15.50
2017,09,27,10,21,15.50
2017,09,27,10,22,15.60
2017,09,27,10,23,15.60
2017,09,27,10,24,15.60
2017,09,27,10,25,15.60
2017,09,27,10,26,15.70
2017,09,27,10,27,15.70
2017,09,27,10,28,15.70
2017,09,27,10,29,15.80
2017,09,27,10,30,15.80
2017,09,27,10,31,15.80
2017,09,27,10,32,15.90
2017,09,27,10,33,16.00
2017,09,27,10,34,16.10
2017,09,27,10,35,16.10
2017,09,27,10,36,16.20
2017,09,27,10,37,16.20
2017,09,27,10,38,16.30
2017,09,27,10,39,16.30
2017,09,27,10,40,16.30
2017,09,27,10,41,16.30
2017,09,27,10,42,16.30
2017,09,27,10,43,16.30
2017,09,27,10,44,16.30
2017,09,27,10,45,16.30
2017,09,27,10,46,16.30
2017,09,27,10,47,16.30
2017,09,27,10,48,16.40
2017,09,27,10,49,16.40
2017,09,27,10,50,16.40
2017,09,27,10,51,16.50
2017,09,27,10,52,16.60
2017,09,27,10,53,16.60
2017,09,27,10,54,16.70
2017,09,27,10,55,16.70
2017,09,27,10,56,16.70
2017,09,27,10,57,16.80
2017,09,27,10,58,16.80
2017,09,27,10,59,16.90
2017,09,27,11,00,16.90
2017,09,27,11,01,16.90
2017,09,27,11,02,17.00
2017,09,27,11,03,17.00
2017,09,27,11,04,17.10
2017,09,27,11,05,17.10
2017,09,27,11,06,17.20
2017,09,27,11,07,17.20
2017,09,27,11,08,17.30
2017,09,27,11,09,17.40
2017,09,27,11,10,17.50
2017,09,27,11,11,17.60
2017,09,27,11,12,17.70
2017,09,27,11,13,17.70
2017,09,27,11,14,17.80
2017,09,27,11,15,17.80
2017,09,27,11,16,17.80
2017,09,27,11,17,17.80
2017,09,27,11,18,17.80
2017,09,27,11,19,17.90
2017,09,27,11,20,17.90
2017,09,27,11,21,17.90
2017,09,27,11,22,18.00
2017,09,27,11,23,18.00
2017,09,27,11,24,17.90
2017,09,27,11,25,17.90
2017,09,27,11,26,17.90
2017,09,27,11,27,17.90
2017,09,27,11,28,17.90
2017,09,27,11,29,17.90
2017,09,27,11,30,18.00
2017,09,27,11,31,18.00
2017,09,27,11,32,18.10
2017,09,27,11,33,18.10
2017,09,27,11,34,18.20
2017,09,27,11,35,18.30
2017,09,27,11,36,18.30
2017,09,27,11,37,18.40
2017,09,27,11,38,18.50
2017,09,27,11,39,18.50
2017,09,27,11,40,18.60
2017,09,27,11,41,18.60
2017,09,27,11,42,18.60
2017,09,27,11,43,18.60
2017,09,27,11,44,18.50
2017,09,27,11,45,18.50
2017,09,27,11,46,18.40
2017,09,27,11,47,18.40
2017,09,27,11,48,18.40
2017,09,27,11,49,18.40
2017,09,27,11,50,18.50
2017,09,27,11,51,18.50
2017,09,27,11,52,18.60
2017,09,27,11,53,18.60
2017,09,27,11,54,18.70
2017,09,27,11,55,18.70
2017,09,27,11,56,18.80
2017,09,27,11,57,18.80
2017,09,27,11,58,18.90
2017,09,27,11,59,19.00
2017,09,27,12,00,19.00
2017,09,27,12,01,19.10
2017,09,27,12,02,19.10
2017,09,27,12,03,19.10
2017,09,27,12,04,19.10
2017,09,27,12,05,19.10
2017,09,27,12,06,19.20
2017,09,27,12,07,19.20
2017,09,27,12,08,19.30
2017,09,27,12,09,19.30
2017,09,27,12,10,19.40
2017,09,27,12,11,19.50
2017,09,27,12,12,19.50
2017,09,27,12,13,19.60
2017,09,27,12,14,19.60
2017,09,27,12,15,19.70
2017,09,27,12,16,19.70
2017,09,27,12,17,19.70
2017,09,27,12,18,19.80
2017,09,27,12,19,19.80
2017,09,27,12,20,19.80
2017,09,27,12,21,19.90
2017,09,27,12,22,19.90
2017,09,27,12,23,20.00
2017,09,27,12,24,20.00
2017,09,27,12,25,20.00
2017,09,27,12,26,20.00
2017,09,27,12,27,20.00
2017,09,27,12,28,19.90
2017,09,27,12,29,19.90
2017,09,27,12,30,19.90
2017,09,27,12,31,19.90
2017,09,27,12,32,19.90
2017,09,27,12,33,20.00
2017,09,27,12,34,20.00
2017,09,27,12,35,20.10
2017,09,27,12,36,20.10
2017,09,27,12,37,20.10
2017,09,27,12,38,20.10
2017,09,27,12,39,20.20
2017,09,27,12,40,20.20
2017,09,27,12,41,20.20
2017,09,27,12,42,20.20
2017,09,27,12,43,20.20
2017,09,27,12,44,20.20
2017,09,27,12,45,20.30
2017,09,27,12,46,20.30
2017,09,27,12,47,20.30
2017,09,27,12,48,20.30
2017,09,27,12,49,20.30
2017,09,27,12,50,20.30
2017,09,27,12,51,20.30
2017,09,27,12,52,20.20
2017,09,27,12,53,20.30
2017,09,27,12,54,20.30
2017,09,27,12,55,20.30
2017,09,27,12,56,20.30
2017,09,27,12,57,20.40
2017,09,27,12,58,20.40
2017,09,27,12,59,20.50
2017,09,27,13,00,20.50
2017,09,27,13,01,20.60
2017,09,27,13,02,20.70
2017,09,27,13,03,20.70
2017,09,27,13,04,20.70
2017,09,27,13,05,20.70
2017,09,27,13,06,20.60
2017,09,27,13,07,20.60
2017,09,27,13,08,20.60
2017,09,27,13,09,20.60
2017,09,27,13,10,20.60
2017,09,27,13,11,20.60
2017,09,27,13,12,20.60
2017,09,27,13,13,20.60
2017,09,27,13,14,20.60
2017,09,27,13,15,20.50
2017,09,27,13,16,20.60
2017,09,27,13,17,20.50
2017,09,27,13,18,20.50
2017,09,27,13,19,20.50
2017,09,27,13,20,20.40
2017,09,27,13,21,20.40
2017,09,27,13,22,20.50
2017,09,27,13,23,20.50
2017,09,27,13,24,20.50
2017,09,27,13,25,20.50
2017,09,27,13,26,20.60
2017,09,27,13,27,20.60
2017,09,27,13,28,20.60
2017,09,27,13,29,20.60
2017,09,27,13,30,20.60
2017,09,27,13,31,20.60
2017,09,27,13,32,20.60
2017,09,27,13,33,20.60
2017,09,27,13,34,20.60
2017,09,27,13,35,20.50
2017,09,27,13,36,20.50
2017,09,27,13,37,20.50
2017,09,27,13,38,20.50
2017,09,27,13,39,20.50
2017,09,27,13,40,20.50
2017,09,27,13,41,20.60
2017,09,27,13,42,20.60
2017,09,27,13,43,20.70
2017,09,27,13,44,20.80
2017,09,27,13,45,20.80
2017,09,27,13,46,20.80
2017,09,27,13,47,20.80
2017,09,27,13,48,20.80
2017,09,27,13,49,20.80
2017,09,27,13,50,20.90
2017,09,27,13,51,20.90
2017,09,27,13,52,20.80
2017,09,27,13,53,20.90
2017,09,27,13,54,20.90
2017,09,27,13,55,20.90
2017,09,27,13,56,20.90
2017,09,27,13,57,20.90
2017,09,27,13,58,20.90
2017,09,27,13,59,20.90
2017,09,27,14,00,20.90
2017,09,27,14,01,20.90
2017,09,27,14,02,20.80
2017,09,27,14,03,20.80
2017,09,27,14,04,20.80
2017,09,27,14,05,20.80
2017,09,27,14,06,20.90
2017,09,27,14,07,20.90
2017,09,27,14,08,20.90
2017,09,27,14,09,20.90
2017,09,27,14,10,20.90
2017,09,27,14,11,21.00
2017,09,27,14,12,21.00
2017,09,27,14,13,21.10
2017,09,27,14,14,21.10
2017,09,27,14,15,21.10
2017,09,27,14,16,21.10
2017,09,27,14,17,21.10
2017,09,27,14,18,21.10
2017,09,27,14,19,21.10
2017,09,27,14,20,21.20
2017,09,27,14,21,21.20
2017,09,27,14,22,21.20
2017,09,27,14,23,21.20
2017,09,27,14,24,21.30
2017,09,27,14,25,21.30
2017,09,27,14,26,21.30
2017,09,27,14,27,21.30
2017,09,27,14,28,21.30
2017,09,27,14,29,21.40
2017,09,27,14,30,21.40
2017,09,27,14,31,21.40
2017,09,27,14,32,21.40
2017,09,27,14,33,21.40
2017,09,27,14,34,21.40
2017,09,27,14,35,21.40
2017,09,27,14,36,21.30
2017,09,27,14,37,21.30
2017,09,27,14,38,21.30
2017,09,27,14,39,21.30
2017,09,27,14,40,21.30
2017,09,27,14,41,21.40
2017,09,27,14,42,21.40
2017,09,27,14,43,21.40
2017,09,27,14,44,21.40
2017,09,27,14,45,21.50
2017,09,27,14,46,21.50
2017,09,27,14,47,21.50
2017,09,27,14,48,21.60
2017,09,27,14,49,21.60
2017,09,27,14,50,21.60
2017,09,27,14,51,21.60
2017,09,27,14,52,21.70
2017,09,27,14,53,21.70
2017,09,27,14,54,21.70
2017,09,27,14,55,21.70
2017,09,27,14,56,21.70
2017,09,27,14,57,21.60
2017,09,27,14,58,21.60
2017,09,27,14,59,21.60
2017,09,27,15,00,21.60
2017,09,27,15,01,21.50
2017,09,27,15,02,21.50
2017,09,27,15,03,21.50
2017,09,27,15,04,21.60
2017,09,27,15,05,21.60
2017,09,27,15,06,21.60
2017,09,27,15,07,21.60
2017,09,27,15,08,21.70
2017,09,27,15,09,21.70
2017,09,27,15,10,21.70
2017,09,27,15,11,21.70
2017,09,27,15,12,21.70
2017,09,27,15,13,21.70
2017,09,27,15,14,21.70
2017,09,27,15,15,21.70
2017,09,27,15,16,21.70
2017,09,27,15,17,21.70
2017,09,27,15,18,21.80
2017,09,27,15,19,21.80
2017,09,27,15,20,21.80
2017,09,27,15,21,21.80
2017,09,27,15,22,21.80
2017,09,27,15,23,21.80
2017,09,27,15,24,21.80
2017,09,27,15,25,21.90
2017,09,27,15,26,21.90
2017,09,27,15,27,21.90
2017,09,27,15,28,21.90
2017,09,27,15,29,21.90
2017,09,27,15,30,21.90
2017,09,27,15,31,21.80
2017,09,27,15,32,21.80
2017,09,27,15,33,21.80
2017,09,27,15,34,21.80
2017,09,27,15,35,21.80
2017,09,27,15,36,21.80
2017,09,27,15,37,21.80
2017,09,27,15,38,21.80
2017,09,27,15,39,21.80
2017,09,27,15,40,21.80
2017,09,27,15,41,21.80
2017,09,27,15,42,21.80
2017,09,27,15,43,21.80
2017,09,27,15,44,21.80
2017,09,27,15,45,21.80
2017,09,27,15,46,21.80
2017,09,27,15,47,21.80
2017,09,27,15,48,21.80
2017,09,27,15,49,21.80
2017,09,27,15,50,21.90
2017,09,27,15,51,21.90
2017,09,27,15,52,21.90
2017,09,27,15,53,22.00
2017,09,27,15,54,22.00
2017,09,27,15,55,22.00
2017,09,27,15,56,22.00
2017,09,27,15,57,22.00
2017,09,27,15,58,22.10
2017,09,27,15,59,22.10
2017,09,27,16,00,22.10
2017,09,27,16,01,22.10
2017,09,27,16,02,22.00
2017,09,27,16,03,22.00
2017,09,27,16,04,22.00
2017,09,27,16,05,21.90
2017,09,27,16,06,21.90
2017,09,27,16,07,21.90
2017,09,27,16,08,21.90
2017,09,27,16,09,21.90
2017,09,27,16,10,22.00
2017,09,27,16,11,22.00
2017,09,27,16,12,22.00
2017,09,27,16,13,22.00
2017,09,27,16,14,22.00
2017,09,27,16,15,22.10
2017,09,27,16,16,22.10
2017,09,27,16,17,22.10
2017,09,27,16,18,22.20
2017,09,27,16,19,22.20
2017,09,27,16,20,22.20
2017,09,27,16,21,22.20
2017,09,27,16,22,22.20
2017,09,27,16,23,22.20
2017,09,27,16,24,22.20
2017,09,27,16,25,22.20
2017,09,27,16,26,22.10
2017,09,27,16,27,22.10
2017,09,27,16,28,22.20
2017,09,27,16,29,22.20
2017,09,27,16,30,22.20
2017,09,27,16,31,22.20
2017,09,27,16,32,22.20
2017,09,27,16,33,22.20
2017,09,27,16,34,22.20
2017,09,27,16,35,22.20
2017,09,27,16,36,22.30
2017,09,27,16,37,22.30
2017,09,27,16,38,22.30
2017,09,27,16,39,22.30
2017,09,27,16,40,22.30
2017,09,27,16,41,22.30
2017,09,27,16,42,22.30
2017,09,27,16,43,22.40
2017,09,27,16,44,22.40
2017,09,27,16,45,22.40
2017,09,27,16,46,22.40
2017,09,27,16,47,22.40
2017,09,27,16,48,22.40
2017,09,27,16,49,22.40
2017,09,27,16,50,22.40
2017,09,27,16,51,22.40
2017,09,27,16,52,22.40
2017,09,27,16,53,22.40
2017,09,27,16,54,22.40
2017,09,27,16,55,22.40
2017,09,27,16,56,22.40
2017,09,27,16,57,22.40
2017,09,27,16,58,22.40
2017,09,27,16,59,22.40
2017,09,27,17,00,22.40
2017,09,27,17,01,22.30
2017,09,27,17,02,22.30
2017,09,27,17,03,22.30
2017,09,27,17,04,22.30
2017,09,27,17,05,22.30
2017,09,27,17,06,22.30
2017,09,27,17,07,22.30
2017,09,27,17,08,22.30
2017,09,27,17,09,22.30
2017,09,27,17,10,22.20
2017,09,27,17,11,22.20
2017,09,27,17,12,22.20
2017,09,27,17,13,22.20
2017,09,27,17,14,22.20
2017,09,27,17,15,22.10
2017,09,27,17,16,22.10
2017,09,27,17,17,22.10
2017,09,27,17,18,22.10
2017,09,27,17,19,22.10